Total_Precipitation_Accumulation
1.22 1.31 1.65 1.56 1.49 1.55 1.63 1.60 1.64 1.72 1.88 2.15 2.34 2.52 2.62 2.82 2.89 2.97 3.04 3.41 3.76 3.91 4.03 4.03 3.60 3.28 3.05 3.02 2.86 2.45 2.08 1.94 1.87 1.81 1.82 1.86 1.94 2.13 2.45 2.59 2.45 1.86 1.81
0.86 1.05 1.45 1.46 1.43 1.45 1.36 1.38 1.52 1.65 1.78 1.97 2.24 2.54 2.57 2.68 2.76 2.76 2.99 3.43 3.75 3.78 3.71 3.52 3.17 2.95 2.79 2.65 2.31 1.88 1.73 1.84 2.13 2.21 2.21 2.00 2.09 2.34 2.51 2.37 2.50 1.88 1.70
0.72 0.92 1.21 1.39 1.40 1.36 1.21 1.33 1.48 1.50 1.64 1.88 2.15 2.49 2.53 2.62 2.72 2.80 3.07 3.33 3.50 3.49 3.33 3.15 2.93 2.68 2.36 2.00 1.67 1.52 1.59 1.87 2.36 2.68 2.67 1.98 1.69 2.11 2.25 2.09 1.93 1.69 1.61
0.81 0.97 1.14 1.22 1.25 1.23 1.17 1.30 1.48 1.56 1.67 1.82 2.01 2.25 2.37 2.50 2.66 2.88 3.06 3.05 3.14 3.14 3.04 2.82 2.47 2.19 1.90 1.59 1.46 1.48 1.63 1.84 2.29 2.81 2.68 1.81 1.33 1.58 1.72 1.68 1.73 1.50 1.42
0.82 0.95 1.16 1.13 1.13 1.15 1.20 1.42 1.51 1.57 1.69 1.75 1.90 2.11 2.26 2.37 2.53 2.84 2.96 2.88 2.91 2.84 2.58 2.33 2.13 1.90 1.63 1.45 1.38 1.42 1.62 1.83 2.25 2.36 1.85 1.74 1.62 1.60 1.47 1.49 1.52 1.31 1.16
0.77 0.87 1.15 1.13 1.02 1.09 1.32 1.47 1.42 1.45 1.58 1.67 1.84 2.02 2.18 2.22 2.39 2.63 2.62 2.55 2.49 2.40 2.26 2.19 2.00 1.75 1.48 1.31 1.31 1.39 1.55 1.87 1.90 1.38 1.29 1.38 1.34 1.44 1.40 1.62 1.49 1.27 1.17
0.84 0.86 1.02 1.08 0.99 1.07 1.23 1.36 1.38 1.38 1.50 1.62 1.83 2.03 2.12 2.15 2.24 2.27 2.20 2.16 2.19 2.12 1.96 1.86 1.76 1.59 1.43 1.35 1.34 1.36 1.55 1.91 1.47 1.03 1.19 1.51 1.34 1.24 1.31 1.69 1.63 1.39 1.22
0.77 0.72 0.83 1.04 1.01 1.06 1.19 1.34 1.43 1.40 1.51 1.68 1.75 1.89 1.90 1.85 1.85 1.86 1.97 2.03 1.98 1.83 1.70 1.63 1.53 1.46 1.41 1.37 1.34 1.37 1.54 1.58 1.01 0.99 1.13 1.26 1.10 1.13 1.25 1.59 1.74 1.72 1.54
0.73 0.73 0.79 0.88 0.87 1.02 1.33 1.53 1.60 1.57 1.63 1.65 1.62 1.76 1.76 1.74 1.74 1.74 1.78 1.83 1.76 1.62 1.52 1.48 1.32 1.20 1.08 1.14 1.15 1.27 1.52 1.56 1.17 1.13 1.05 1.03 0.89 0.99 1.25 1.46 1.59 1.73 1.69
0.91 0.88 0.91 0.92 0.85 0.86 1.15 1.54 1.79 1.82 1.74 1.69 1.76 1.84 1.84 1.87 1.83 1.81 1.57 1.62 1.67 1.55 1.51 1.49 1.39 1.15 1.06 1.12 1.19 1.34 1.54 1.29 1.23 1.15 1.23 1.14 0.99 1.13 1.39 1.49 1.47 1.47 1.41
1.23 1.14 1.08 0.94 0.89 0.92 1.05 1.31 1.60 1.84 1.99 2.03 2.06 2.01 2.11 2.19 2.12 2.17 1.84 1.93 1.89 1.76 1.71 1.74 1.60 1.36 1.22 1.20 1.44 1.72 1.44 1.16 1.34 1.35 1.37 1.28 1.22 1.44 1.70 1.69 1.61 1.51 1.38
1.51 1.18 1.15 1.03 0.99 0.98 0.93 1.15 1.45 1.53 1.81 2.05 2.15 2.15 2.41 2.60 2.65 2.25 2.50 2.60 2.42 2.32 2.17 2.18 2.23 1.89 1.51 1.46 2.02 2.30 1.40 1.16 1.18 1.27 1.32 1.32 1.57 1.84 2.03 1.88 1.75 1.70 1.59
1.45 1.46 1.45 1.28 1.25 1.23 1.31 1.21 1.39 1.63 1.89 1.95 1.96 2.21 2.61 2.55 2.50 2.38 2.54 2.92 2.95 2.90 2.76 2.76 2.75 2.30 2.13 2.33 2.47 2.18 1.61 1.49 1.49 1.52 1.61 1.77 2.06 2.32 2.37 2.09 1.95 1.90 1.85
1.77 2.01 2.11 1.83 1.84 1.72 1.55 1.46 1.46 1.58 1.82 2.03 2.31 2.43 2.58 2.86 2.89 2.69 2.71 2.85 2.95 3.06 3.46 3.30 3.14 2.85 2.73 2.56 2.45 2.17 1.94 1.93 1.94 2.12 2.35 2.09 2.16 2.45 2.61 2.42 2.28 2.20 2.14
2.47 2.73 2.92 2.49 2.39 2.26 2.27 2.21 1.92 2.01 2.14 2.32 2.57 2.78 2.83 3.10 3.26 3.21 3.04 2.93 2.70 2.76 3.11 3.37 3.23 3.22 3.09 2.87 2.57 2.35 2.23 2.14 2.07 2.26 2.40 2.48 2.44 2.46 2.71 2.89 2.76 2.54 2.45
2.99 3.15 3.30 3.18 3.21 3.06 2.84 2.89 2.84 2.47 2.56 2.59 2.68 2.77 2.93 3.19 3.62 3.73 3.52 3.33 2.92 2.79 2.86 3.18 3.25 3.48 3.39 3.17 2.56 2.41 2.37 2.34 2.37 2.34 2.49 2.97 2.98 2.57 2.62 2.95 3.16 3.16 3.01
3.82 3.76 3.81 3.77 4.06 3.97 3.59 3.25 2.95 2.77 2.73 2.96 3.02 3.08 3.14 3.38 3.77 3.73 3.50 3.11 2.77 2.75 2.98 3.00 3.01 3.29 3.14 3.00 2.87 2.84 2.77 2.65 2.54 2.50 2.59 3.07 3.03 2.63 2.49 2.60 2.97 3.28 3.36
4.66 4.59 4.39 3.97 4.38 4.43 4.15 3.94 3.56 3.28 3.36 3.37 3.08 3.21 3.15 3.31 3.27 3.34 3.03 2.69 2.70 2.83 3.00 3.20 3.09 3.19 3.22 3.29 3.36 3.28 3.07 2.91 2.49 2.31 2.21 2.34 2.60 2.31 2.47 2.70 2.84 2.96 3.34
5.10 5.33 5.31 5.22 4.99 4.75 4.56 4.43 4.23 4.06 3.78 3.41 3.25 3.33 3.04 2.74 2.57 2.77 2.74 2.69 2.61 2.78 2.85 2.67 3.05 3.33 3.35 3.37 3.10 3.17 2.76 2.64 2.41 2.10 2.05 1.99 2.15 2.30 2.35 2.41 2.60 2.66 3.11
5.03 5.63 5.84 5.94 5.65 5.17 4.71 4.35 4.27 4.04 3.79 3.51 3.28 3.25 2.83 2.61 2.36 2.65 2.65 2.61 2.60 2.75 2.86 2.99 3.29 3.43 3.12 3.05 2.74 2.67 2.40 2.05 2.04 1.98 1.80 1.85 1.97 1.92 2.10 2.28 2.61 2.43 2.87
4.58 5.31 5.47 5.85 5.44 4.81 4.27 3.86 3.74 3.58 3.27 3.15 3.03 2.96 2.84 2.60 2.51 2.78 2.65 2.74 2.56 2.63 2.63 2.71 2.99 3.13 2.77 2.84 3.30 2.91 2.28 1.88 1.90 1.78 1.80 1.87 1.84 1.89 2.14 2.48 2.74 2.83 2.81
3.93 4.67 4.75 4.50 4.34 3.93 3.60 3.45 3.28 3.24 2.90 2.73 2.63 2.76 2.55 2.39 2.48 2.53 2.66 2.50 2.43 2.58 2.56 2.61 2.88 2.85 2.55 2.74 3.23 3.40 2.88 2.50 2.14 1.70 1.72 1.76 1.85 2.08 2.17 2.22 2.68 3.00 2.94
3.58 3.69 3.34 3.21 3.33 3.30 3.16 3.08 2.98 3.00 2.80 2.57 2.46 2.54 2.36 2.17 2.23 2.30 2.26 2.29 2.40 2.16 2.35 2.57 2.72 2.79 2.70 2.62 2.85 3.33 3.17 2.84 2.46 2.01 1.83 1.93 2.12 2.28 2.35 2.47 2.53 2.77 2.97
2.73 2.66 2.64 2.63 2.71 2.92 2.93 2.73 2.57 2.35 2.31 2.29 2.23 2.33 2.35 2.10 2.00 2.03 2.03 2.20 2.29 2.21 2.48 2.18 2.31 2.60 2.82 2.62 2.62 2.65 2.72 2.96 2.96 2.55 2.17 2.01 2.09 2.23 2.31 2.31 2.38 2.65 2.87
2.05 2.14 2.15 2.46 2.59 2.61 2.59 2.57 2.64 2.40 2.28 2.29 2.43 2.68 2.61 2.26 1.92 1.76 1.88 2.07 2.18 2.24 2.33 2.24 2.36 2.34 2.41 2.46 2.53 2.53 2.67 2.90 2.74 2.66 2.50 2.26 2.12 1.96 2.04 2.17 2.38 2.61 2.71
1.37 1.53 1.67 2.00 2.25 2.31 2.26 2.26 2.35 2.41 2.45 2.30 2.30 2.40 2.35 2.21 1.99 1.80 1.83 2.07 2.13 2.19 2.23 2.25 2.23 2.15 2.24 2.35 2.39 2.43 2.63 2.67 2.63 2.73 2.56 2.38 2.23 1.94 1.91 1.99 2.18 2.31 2.40